{"data":{"norad_id":59108,"epoch":"2026-09-22T22:46:30.892224Z","epoch_age_seconds":46373,"freshness":"FRESH","line1":"1 59108U 24043L   26265.94896866  .00000214  00000+0  23809-4 0  9995","line2":"2 59108  97.8611  37.5449 0008983  34.1250 326.0547 14.97022152139263","mean_motion":14.97022152,"eccentricity":0.0008983,"inclination_deg":97.8611,"raan_deg":37.5449,"arg_perigee_deg":34.125,"mean_anomaly_deg":326.0547,"bstar":2.3809e-5,"rev_number":13926,"period_min":96.190961374632,"perigee_km":569.85625314318,"apogee_km":582.35024117122,"semimajor_km":6954.2402471572,"source":"CELESTRAK","updated_at":"2026-09-23T09:00:19.175514Z"}}